When you browse on this site, cookies collect data to enhance your experience and personalize the content and advertising you see.
Visit our Privacy Policy to learn more. By continuing to use the site, you agree to this use of cookies and data.
  • In Czech Republic
  • List of Countries
  • For 7 days
  • Water Temperature
  • Weather Map
  • Weather Widgets
  • user-avatar
    Login

    Hourly Weather Essen

    Today, 23 February, Sunday

    Time Temperature Precipitation Wind Pressure Humidity
    00:00 +8°C° 0.3 mm 6 mps 757 mmHg 81%
    01:00 +8°C° 0.4 mm 6 mps 756 mmHg 82%
    02:00 +8°C° 0.4 mm 6 mps 756 mmHg 83%
    03:00 +7°C° 0.4 mm 6 mps 755 mmHg 84%
    04:00 +7°C° 1 mm 6 mps 755 mmHg 85%
    05:00 +7°C° 1 mm 6 mps 754 mmHg 87%
    06:00 +7°C° 1 mm 6 mps 754 mmHg 89%
    07:00 +8°C° 2.2 mm 6 mps 752 mmHg 90%
    08:00 +8°C° 2.2 mm 7 mps 751 mmHg 91%
    09:00 +9°C° 2.2 mm 8 mps 750 mmHg 93%
    10:00 +10°C° 1.5 mm 9 mps 749 mmHg 88%
    11:00 +11°C° 1.5 mm 10 mps 749 mmHg 83%
    12:00 +12°C° 1.5 mm 11 mps 748 mmHg 79%
    13:00 +11°C° 1.7 mm 11 mps 748 mmHg 80%
    14:00 +11°C° 1.7 mm 11 mps 748 mmHg 82%
    15:00 +11°C° 1.7 mm 11 mps 748 mmHg 84%
    16:00 +9°C° 0.8 mm 10 mps 750 mmHg 79%
    17:00 +7°C° 0.8 mm 9 mps 751 mmHg 74%
    18:00 +6°C° 0.8 mm 8 mps 753 mmHg 69%
    19:00 +5°C° 0 mm 7 mps 754 mmHg 67%
    20:00 +4°C° 0 mm 6 mps 755 mmHg 64%
    21:00 +3°C° 0 mm 5 mps 757 mmHg 62%
    22:00 +4°C° 0 mm 4 mps 757 mmHg 64%
    23:00 +3°C° 0 mm 4 mps 758 mmHg 66%

    Tomorrow, 24 February, Monday

    Time Temperature Precipitation Wind Pressure Humidity
    00:00 +3°C° 0 mm 3 mps 759 mmHg 68%
    01:00 +3°C° 0 mm 3 mps 759 mmHg 70%
    02:00 +2°C° 0 mm 3 mps 759 mmHg 73%
    03:00 +3°C° 0 mm 2 mps 759 mmHg 75%
    04:00 +3°C° 0 mm 2 mps 758 mmHg 76%
    05:00 +3°C° 0 mm 2 mps 758 mmHg 76%
    06:00 +3°C° 0 mm 2 mps 758 mmHg 76%
    07:00 +3°C° 0.2 mm 2 mps 757 mmHg 78%
    08:00 +2°C° 0.2 mm 3 mps 756 mmHg 79%
    09:00 +2°C° 0.2 mm 3 mps 756 mmHg 81%
    10:00 +3°C° 0.2 mm 4 mps 754 mmHg 83%
    11:00 +4°C° 0.2 mm 4 mps 753 mmHg 85%
    12:00 +5°C° 0.2 mm 5 mps 752 mmHg 86%
    13:00 +5°C° 0 mm 6 mps 750 mmHg 86%
    14:00 +8°C° 0 mm 6 mps 749 mmHg 86%
    15:00 +9°C° 0 mm 6 mps 748 mmHg 85%
    16:00 +9°C° 0 mm 7 mps 747 mmHg 83%
    17:00 +9°C° 0 mm 7 mps 746 mmHg 82%
    18:00 +9°C° 0 mm 8 mps 746 mmHg 80%
    19:00 +9°C° 0.6 mm 8 mps 745 mmHg 81%
    20:00 +9°C° 0.6 mm 8 mps 745 mmHg 83%
    21:00 +9°C° 0.6 mm 8 mps 744 mmHg 84%
    22:00 +9°C° 0.3 mm 8 mps 744 mmHg 83%
    23:00 +9°C° 0.3 mm 8 mps 744 mmHg 81%

    Day after tomorrow, 25 February, Tuesday

    Time Temperature Precipitation Wind Pressure Humidity
    00:00 +9°C° 0.3 mm 8 mps 744 mmHg 80%
    01:00 +7°C° 0.1 mm 8 mps 744 mmHg 77%
    02:00 +6°C° 0.1 mm 7 mps 744 mmHg 74%
    03:00 +5°C° 0.1 mm 7 mps 743 mmHg 70%
    04:00 +5°C° 0 mm 7 mps 743 mmHg 70%
    05:00 +4°C° 0 mm 7 mps 743 mmHg 69%
    06:00 +4°C° 0 mm 6 mps 744 mmHg 68%
    07:00 +4°C° 0.1 mm 7 mps 743 mmHg 66%
    08:00 +4°C° 0.1 mm 7 mps 743 mmHg 64%
    09:00 +4°C° 0.1 mm 7 mps 743 mmHg 62%
    10:00 +4°C° 0 mm 8 mps 743 mmHg 60%
    11:00 +5°C° 0 mm 8 mps 743 mmHg 58%
    12:00 +5°C° 0 mm 8 mps 743 mmHg 56%
    13:00 +5°C° 0.1 mm 8 mps 742 mmHg 56%
    14:00 +5°C° 0.1 mm 8 mps 742 mmHg 56%
    15:00 +5°C° 0.1 mm 8 mps 741 mmHg 56%
    16:00 +5°C° 0.1 mm 6 mps 741 mmHg 59%
    17:00 +5°C° 0.1 mm 5 mps 741 mmHg 63%
    18:00 +4°C° 0.1 mm 4 mps 741 mmHg 67%
    19:00 +4°C° 0 mm 4 mps 740 mmHg 69%
    20:00 +4°C° 0 mm 4 mps 740 mmHg 71%
    21:00 +3°C° 0 mm 3 mps 739 mmHg 73%
    22:00 +3°C° 0.1 mm 3 mps 738 mmHg 78%
    23:00 +3°C° 0.1 mm 4 mps 738 mmHg 82%

    26 February, Wednesday

    Time Temperature Precipitation Wind Pressure Humidity
    00:00 +3°C° 0.1 mm 4 mps 737 mmHg 86%
    01:00 +1°C° 1.2 mm 4 mps 736 mmHg 88%
    02:00 0°C° 1.2 mm 5 mps 735 mmHg 90%
    03:00 -1°C° 1.2 mm 6 mps 735 mmHg 92%
    04:00 -1°C° 1.4 mm 6 mps 735 mmHg 92%
    05:00 -2°C° 1.4 mm 7 mps 735 mmHg 93%
    06:00 -2°C° 1.4 mm 7 mps 735 mmHg 93%
    07:00 -2°C° 1.3 mm 6 mps 735 mmHg 94%
    08:00 -1°C° 1.3 mm 5 mps 736 mmHg 95%
    09:00 -1°C° 1.3 mm 4 mps 737 mmHg 96%
    10:00 0°C° 0.2 mm 4 mps 738 mmHg 90%
    11:00 +1°C° 0.2 mm 4 mps 739 mmHg 84%
    12:00 +4°C° 0.2 mm 4 mps 740 mmHg 78%
    13:00 +4°C° 0.2 mm 4 mps 741 mmHg 75%
    14:00 +3°C° 0.2 mm 5 mps 741 mmHg 73%
    15:00 +3°C° 0.2 mm 5 mps 742 mmHg 70%
    16:00 +3°C° 0.4 mm 5 mps 743 mmHg 72%
    17:00 +2°C° 0.4 mm 5 mps 744 mmHg 74%
    18:00 +1°C° 0.4 mm 4 mps 745 mmHg 76%
    19:00 +1°C° 0.2 mm 4 mps 745 mmHg 77%
    20:00 +1°C° 0.2 mm 4 mps 746 mmHg 78%
    21:00 +1°C° 0.2 mm 4 mps 747 mmHg 79%
    22:00 0°C° 0 mm 4 mps 747 mmHg 81%
    23:00 0°C° 0 mm 4 mps 747 mmHg 82%

    27 February, Thursday

    Time Temperature Precipitation Wind Pressure Humidity
    00:00 0°C° 0 mm 4 mps 748 mmHg 84%
    01:00 0°C° 0.1 mm 4 mps 748 mmHg 85%
    02:00 0°C° 0.1 mm 4 mps 748 mmHg 87%
    03:00 0°C° 0.1 mm 4 mps 749 mmHg 88%
    04:00 -1°C° 0.1 mm 4 mps 749 mmHg 88%
    05:00 -1°C° 0.1 mm 4 mps 749 mmHg 88%
    06:00 -1°C° 0.1 mm 4 mps 750 mmHg 88%
    07:00 0°C° 0 mm 4 mps 750 mmHg 84%
    08:00 0°C° 0 mm 4 mps 750 mmHg 80%
    09:00 +1°C° 0 mm 4 mps 750 mmHg 76%
    10:00 +2°C° 0 mm 5 mps 749 mmHg 71%
    11:00 +2°C° 0 mm 5 mps 749 mmHg 66%
    12:00 +3°C° 0 mm 5 mps 748 mmHg 61%
    13:00 +3°C° 0.4 mm 6 mps 747 mmHg 71%
    14:00 +2°C° 0.4 mm 7 mps 746 mmHg 80%
    15:00 0°C° 0.4 mm 7 mps 745 mmHg 90%
    16:00 0°C° 1.1 mm 7 mps 744 mmHg 89%
    17:00 +2°C° 1.1 mm 7 mps 743 mmHg 88%
    18:00 +2°C° 1.1 mm 6 mps 742 mmHg 88%
    19:00 +3°C° 0.1 mm 6 mps 742 mmHg 89%
    20:00 +4°C° 0.1 mm 6 mps 741 mmHg 90%
    21:00 +7°C° 0.1 mm 6 mps 741 mmHg 91%
    22:00 +7°C° 0.1 mm 6 mps 741 mmHg 89%
    23:00 +5°C° 0.1 mm 6 mps 741 mmHg 86%

    28 February, Friday

    Time Temperature Precipitation Wind Pressure Humidity
    00:00 +5°C° 0.1 mm 6 mps 742 mmHg 84%
    01:00 +5°C° 0 mm 6 mps 742 mmHg 84%
    02:00 +5°C° 0 mm 5 mps 742 mmHg 84%
    03:00 +5°C° 0 mm 5 mps 742 mmHg 84%
    04:00 +5°C° 0 mm 5 mps 742 mmHg 84%
    05:00 +5°C° 0 mm 5 mps 743 mmHg 84%
    06:00 +5°C° 0 mm 5 mps 743 mmHg 83%
    07:00 +5°C° 0.5 mm 5 mps 743 mmHg 84%
    08:00 +5°C° 0.5 mm 5 mps 743 mmHg 86%
    09:00 +5°C° 0.5 mm 5 mps 744 mmHg 87%
    10:00 +5°C° 0.6 mm 4 mps 743 mmHg 88%
    11:00 +5°C° 0.6 mm 3 mps 743 mmHg 90%
    12:00 +5°C° 0.6 mm 3 mps 743 mmHg 91%
    13:00 +7°C° 0.8 mm 3 mps 743 mmHg 92%
    14:00 +8°C° 0.8 mm 3 mps 742 mmHg 92%
    15:00 +7°C° 0.8 mm 4 mps 742 mmHg 92%
    16:00 +8°C° 0.8 mm 5 mps 741 mmHg 90%
    17:00 +8°C° 0.8 mm 6 mps 741 mmHg 89%
    18:00 +8°C° 0.8 mm 6 mps 740 mmHg 87%
    19:00 +8°C° 0.4 mm 7 mps 740 mmHg 84%
    20:00 +9°C° 0.4 mm 7 mps 739 mmHg 81%
    21:00 +9°C° 0.4 mm 7 mps 739 mmHg 78%
    22:00 +9°C° 0 mm 7 mps 738 mmHg 77%
    23:00 +9°C° 0 mm 7 mps 737 mmHg 76%
    Show more